{"data":{"norad_id":65282,"epoch":"2026-05-25T02:36:08.205120Z","epoch_age_seconds":59511,"freshness":"FRESH","line1":"1 65282U 25184K   26145.10842830  .00003028  00000+0  21382-3 0  9998","line2":"2 65282  97.4503 197.6815 0001266 139.3811 220.7511 15.05657619 42752","mean_motion":15.05657619,"eccentricity":0.0001266,"inclination_deg":97.4503,"raan_deg":197.6815,"arg_perigee_deg":139.3811,"mean_anomaly_deg":220.7511,"bstar":0.00021382,"rev_number":4275,"period_min":95.63927295479,"perigee_km":548.61074631292,"apogee_km":550.36482090813,"semimajor_km":6927.6247836105,"source":"CELESTRAK","updated_at":"2026-05-25T13:38:20.731233Z"}}